This demonstration page uses our WeatherBlox Daily Observations layout. Learn more.

Left ArrowRight Arrow

36.19886, -115.1175

Hourly Observations for February 3, 2021

Temp ( °F °C ) Dew Point ( °F °C ) Humidity (%) Winds ( mph kmh ) Pressure ( in mb ) Visibility ( mi km ) Precip ( " mm )
12:53 am 00:53 Clear 63 17.2 39 3.9 41 41 SSW 17 28 29.95 1014 10 16 N/A
1:53 am 01:53 Clear 61 16.1 38 3.3 43 43 SSW 16 26 29.93 1013 10 16 N/A
2:53 am 02:53 Clear 64 17.8 35 1.7 34 34 SSW 22 35 29.90 1013 10 16 N/A
3:53 am 03:53 Clear 65 18.3 31 -0.6 28 28 SSW 16 26 29.89 1012 10 16 N/A
4:53 am 04:53 Clear 64 17.8 29 -1.7 27 27 S 18 30 29.87 1012 10 16 N/A
5:53 am 05:53 Clear 62 16.7 31 -0.6 31 31 S 24 39 29.86 1011 10 16 N/A
6:53 am 06:53 Mostly Sunny 60 15.6 32 undefined 35 35 S 28 44 29.86 1011 10 16 N/A
7:53 am 07:53 Sunny 61 16.1 30 -1.1 31 31 S 23 37 29.86 1011 10 16 N/A
8:53 am 08:53 Sunny 64 17.8 26 -3.3 24 24 S 23 37 29.84 1010 10 16 N/A
9:53 am 09:53 Sunny 66 18.9 28 -2.2 24 24 NW 9 15 29.87 1012 10 16 N/A
10:53 am 10:53 Sunny 66 18.9 28 -2.2 24 24 NW 10 17 29.87 1011 10 16 N/A
11:53 am 11:53 Sunny 69 20.6 27 -2.8 21 21 NE 8 13 29.83 1010 10 16 N/A
12:53 pm 12:53 Sunny 71 21.7 24 -4.4 17 17 NNW 12 19 29.79 1009 10 16 N/A
1:53 pm 13:53 Sunny 71 21.7 23 -5 16 16 NW 7 11 29.78 1008 10 16 N/A
2:53 pm 14:53 Sunny 72 22.2 21 -6.1 15 15 W 6 9 29.76 1008 10 16 N/A
3:53 pm 15:53 Sunny 70 21.1 22 -5.6 16 16 NW 18 30 29.77 1008 10 16 N/A
4:53 pm 16:53 Sunny 67 19.4 24 -4.4 20 20 NNW 14 22 29.80 1009 10 16 N/A
5:53 pm 17:53 Clear 65 18.3 25 -3.9 22 22 NW 14 22 29.83 1010 10 16 N/A
6:53 pm 18:53 Clear 63 17.2 26 -3.3 25 25 WNW 12 19 29.87 1012 10 16 N/A
7:53 pm 19:53 Clear 62 16.7 17 -8.3 17 17 NW 20 31 29.89 1012 10 16 N/A
8:53 pm 20:53 Clear 60 15.6 17 -8.3 19 19 WNW 26 43 29.92 1013 10 16 N/A
9:53 pm 21:53 Clear 59 15 18 -7.8 20 20 NW 22 35 29.95 1014 10 16 N/A
10:53 pm 22:53 Clear 59 15 16 -8.9 18 18 NW 17 28 29.99 1016 10 16 N/A
11:53 pm 23:53 Clear 55 12.8 16 -8.9 21 21 N 16 26 30.03 1017 10 16 N/A

Powered by AerisWeather